Weather History for KNBC - January, 2014

Change the Weather History Date:

Tuesday, January 21, 2014

  Actual Average Record
Temperature  
Mean Temperature 55 °F -  
Max Temperature 66 °F 57 °F 79 °F (1954)
Min Temperature 42 °F 38 °F 5 °F (1985)
Degree Days  
Heating Degree Days 10    
Growing Degree Days 5 (Base 50)    
Moisture  
Dew Point 38 °F    
Average Humidity 57    
Maximum Humidity 90    
Minimum Humidity 31    
Precipitation  
Precipitation 0.00 in - - ()
Sea Level Pressure  
Sea Level Pressure 29.75 in    
Wind  
Wind Speed 10 mph (WSW)    
Max Wind Speed 26 mph    
Max Gust Speed 38 mph    
Visibility 10 miles    
Events Rain , Hail , Thunderstorm    
Averages and records for this station are not official NWS values.
T = Trace of Precipitation, MM = Missing Value Source: NWS Daily Summary

Daily Weather History Graph

Daily Weather History Graph

Search for Another Location

Airport or City:

Trip Planner

Search our weather history database for the weather conditions in past years. The results will help you decide how hot, cold, wet, or windy it might be!

Date:

Astronomy

Jan. 21, 2014 Rise Set
Actual Time 7:23 AM EST 5:45 PM EST
Civil Twilight 6:56 AM EST 6:12 PM EST
Nautical Twilight 6:26 AM EST 6:41 PM EST
Astronomical Twilight 5:57 AM EST 7:11 PM EST
Moon 10:55 PM EST (1/21) 10:11 AM EST (1/21)
Length of Visible Light 11h 15m
Length of Day
10h 22m
Waning Gibbous, 75% of the Moon is Illuminated
Jan 21
Waning Gibbous
Jan 24
Last Quarter
Jan 30
New
Feb 6
First Quarter
Feb 14
Full

Hourly Weather History & Observations

Time (EST) Temp. Windchill Dew Point Humidity Pressure Visibility Wind Dir Wind Speed Gust Speed Precip Events Conditions
12:56 AM 48.0 °F - 35.1 °F 61% 29.91 in 10.0 mi SW 9.2 mph - N/A   Clear
1:56 AM 48.0 °F - 35.1 °F 61% 29.90 in 10.0 mi SW 4.6 mph - N/A   Clear
2:56 AM 46.0 °F 44.8 °F 34.0 °F 63% 29.89 in 10.0 mi SSW 3.5 mph - N/A   Clear
3:56 AM 44.1 °F 41.5 °F 34.0 °F 68% 29.88 in 10.0 mi SW 4.6 mph - N/A   Clear
4:56 AM 44.1 °F 40.8 °F 35.1 °F 71% 29.87 in 10.0 mi SW 5.8 mph - N/A   Clear
5:56 AM 44.1 °F 40.8 °F 37.9 °F 79% 29.86 in 10.0 mi SW 5.8 mph - N/A   Clear
6:56 AM 45.0 °F 41.8 °F 39.9 °F 82% 29.84 in 10.0 mi SW 5.8 mph - N/A   Partly Cloudy
7:56 AM 45.0 °F 41.8 °F 42.1 °F 90% 29.83 in 10.0 mi SW 5.8 mph - N/A   Partly Cloudy
8:56 AM 50.0 °F - 44.1 °F 80% 29.81 in 10.0 mi SW 5.8 mph - N/A   Clear
9:56 AM 55.9 °F - 42.1 °F 60% 29.80 in 10.0 mi SW 12.7 mph 17.3 mph N/A   Partly Cloudy
10:56 AM 61.0 °F - 39.0 °F 44% 29.77 in 10.0 mi SW 12.7 mph - N/A   Partly Cloudy
11:56 AM 64.0 °F - 42.1 °F 45% 29.72 in 10.0 mi WSW 13.8 mph - N/A   Partly Cloudy
12:56 PM 66.0 °F - 46.9 °F 50% 29.66 in 10.0 mi SW 15.0 mph - N/A   Partly Cloudy
1:56 PM 64.9 °F - 48.9 °F 56% 29.60 in 10.0 mi SW 16.1 mph - N/A   Mostly Cloudy
2:24 PM 64.0 °F - 51.1 °F 63% 29.59 in 9.0 mi WSW 15.0 mph 27.6 mph 0.00 in Rain , Hail Rain
2:27 PM 63.0 °F - 52.0 °F 67% 29.59 in 9.0 mi WSW 16.1 mph 27.6 mph 0.00 in   Overcast
2:47 PM 63.0 °F - 52.0 °F 67% 29.59 in 4.0 mi WSW 12.7 mph - N/A Rain , Thunderstorm Thunderstorms and Rain
2:54 PM 62.6 °F - 51.8 °F 68% 29.59 in 10.0 mi SW 12.7 mph 19.6 mph N/A Thunderstorm Mostly Cloudy
2:56 PM 62.1 °F - 52.0 °F 70% 29.59 in 10.0 mi WSW 13.8 mph 19.6 mph N/A Thunderstorm Mostly Cloudy
3:16 PM 66.9 °F - 46.9 °F 49% 29.59 in 10.0 mi West 15.0 mph 27.6 mph N/A   Mostly Cloudy
3:56 PM 66.0 °F - 43.0 °F 43% 29.60 in 10.0 mi WNW 13.8 mph 28.8 mph N/A   Mostly Cloudy
4:56 PM 62.1 °F - 34.0 °F 35% 29.63 in 10.0 mi NW 17.3 mph 28.8 mph N/A   Mostly Cloudy
5:56 PM 55.0 °F - 25.0 °F 31% 29.70 in 8.0 mi NW 26.5 mph 38.0 mph N/A   Scattered Clouds
6:56 PM 51.1 °F - 21.9 °F 32% 29.75 in 10.0 mi NW 18.4 mph 33.4 mph N/A   Clear
7:56 PM 48.9 °F - 21.0 °F 33% 29.78 in 10.0 mi WNW 16.1 mph 26.5 mph N/A   Clear
8:56 PM 46.9 °F - 21.9 °F 37% 29.81 in 10.0 mi NW 13.8 mph 24.2 mph N/A   Clear
9:56 PM 45.0 °F 38.2 °F 21.9 °F 40% 29.83 in 10.0 mi NW 15.0 mph 21.9 mph N/A   Clear
10:56 PM 44.1 °F 38.1 °F 24.1 °F 45% 29.85 in 10.0 mi WNW 11.5 mph 21.9 mph N/A   Clear
11:56 PM 42.1 °F 35.2 °F 24.1 °F 49% 29.87 in 10.0 mi NW 12.7 mph 23.0 mph N/A   Clear